TimeEST,TemperatureF,Dew PointF,Humidity,Sea Level PressureIn,VisibilityMPH,Wind Direction,Wind SpeedMPH,Gust SpeedMPH,PrecipitationIn,Events,Conditions,WindDirDegrees,DateUTC
12:00 AM,32.0,28.4,87,30.03,8.0,WSW,6.9,-,N/A,,Overcast,240,2013-01-01 05:00:00
12:15 AM,32.0,28.4,87,30.03,8.0,West,9.2,-,N/A,,Overcast,270,2013-01-01 05:15:00
12:38 AM,32.0,28.4,87,30.03,7.0,NW,5.8,-,N/A,,Overcast,310,2013-01-01 05:38:00
12:53 AM,32.0,26.1,79,30.05,7.0,NNW,9.2,-,N/A,,Overcast,330,2013-01-01 05:53:00
2:42 AM,28.4,21.2,74,30.03,10.0,NW,10.4,-,N/A,,Overcast,310,2013-01-01 07:42:00
2:53 AM,28.9,19.9,69,30.06,10.0,NW,10.4,-,N/A,,Overcast,310,2013-01-01 07:53:00
4:53 AM,28.0,19.9,72,30.07,10.0,NW,8.1,-,N/A,,Overcast,310,2013-01-01 09:53:00
5:53 AM,27.0,19.0,72,30.08,10.0,NW,5.8,-,N/A,,Overcast,320,2013-01-01 10:53:00
6:53 AM,27.0,17.1,66,30.08,10.0,NNW,6.9,-,N/A,,Overcast,330,2013-01-01 11:53:00
7:53 AM,26.1,16.0,66,30.12,10.0,NNW,6.9,-,N/A,,Overcast,330,2013-01-01 12:53:00
8:53 AM,25.0,15.1,66,30.14,10.0,NNW,5.8,-,N/A,,Overcast,330,2013-01-01 13:53:00
9:53 AM,21.9,12.9,68,30.16,10.0,NW,11.5,-,N/A,,Partly Cloudy,320,2013-01-01 14:53:00
10:53 AM,25.0,12.9,60,30.15,10.0,NNW,12.7,20.7,N/A,,Clear,330,2013-01-01 15:53:00
11:53 AM,26.1,12.9,58,30.14,10.0,North,5.8,-,N/A,,Mostly Cloudy,360,2013-01-01 16:53:00
12:53 PM,26.1,12.0,55,30.13,10.0,North,4.6,-,N/A,,Scattered Clouds,10,2013-01-01 17:53:00
1:53 PM,24.1,12.0,60,30.11,10.0,NW,12.7,-,N/A,,Partly Cloudy,310,2013-01-01 18:53:00
2:53 PM,24.1,12.9,62,30.12,10.0,NW,4.6,-,N/A,,Scattered Clouds,320,2013-01-01 19:53:00
3:53 PM,21.9,12.0,66,30.13,10.0,WNW,6.9,-,N/A,,Partly Cloudy,300,2013-01-01 20:53:00
4:53 PM,21.0,9.0,60,30.13,10.0,NW,6.9,-,N/A,,Clear,320,2013-01-01 21:53:00
5:53 PM,18.0,8.1,65,30.14,10.0,NW,3.5,-,N/A,,Clear,320,2013-01-01 22:53:00
6:53 PM,18.0,9.0,68,30.14,10.0,Calm,Calm,-,N/A,,Clear,0,2013-01-01 23:53:00
7:53 PM,12.9,7.0,77,30.14,10.0,Calm,Calm,-,N/A,,Clear,0,2013-01-02 00:53:00
8:53 PM,7.0,1.9,80,30.15,10.0,SSW,4.6,-,N/A,,Clear,210,2013-01-02 01:53:00
9:53 PM,10.9,5.0,77,30.15,10.0,SW,5.8,-,N/A,,Mostly Cloudy,220,2013-01-02 02:53:00
10:53 PM,15.1,9.0,77,30.14,10.0,SSW,4.6,-,N/A,,Overcast,210,2013-01-02 03:53:00
11:53 PM,16.0,10.0,77,30.15,10.0,SW,5.8,-,N/A,,Overcast,220,2013-01-02 04:53:00